Home   Weather   Bradford   Past weeks

Flag for United Kingdom Past Weather in Bradford, England, United Kingdom — Yesterday and Last 2 Weeks

Now
36 °F

Fog.


Feels Like: 30 °F
Forecast: N/A
Wind: 7 mph from West

Location: Leeds And Bradford

Current Time: Jan 22, 2017 at 6:27:07 pm

Latest Report: Jan 22, 2017 at 5:50 pm


Visibility: 2 mi

Pressure: 30.24 "Hg

Humidity: 93%

Dew Point: 34 °F

Location of BradfordLocation

Past Weather in Bradford — Graph

°F

Bradford Temperature Yesterday

Maximum temperature yesterday: 37 °F (at 11:50 am)
Minimum temperature yesterday: 34 °F (at 12:20 am)
Average temperature yesterday: 36 °F

High & Low Weather Summary for the Past Weeks

 TemperatureHumidityPressure
High50 °F (Jan 11, 2:50 am)100% (Jan 7, 5:20 pm)30.63 "Hg (Jan 7, 5:20 pm)
Low28 °F (Jan 22, 6:50 am)70% (Jan 11, 9:50 pm)29.39 "Hg (Jan 12, 4:20 pm)
Average40 °F93%30.14 "Hg
* Reported Jan 7 5:20 pm — Jan 22 5:20 pm, Bradford, Weather by CustomWeather, © 2017

Note: Actual official high and low records may vary slightly from our data, if they occured in-between our weather recording intervals... More about our weather records

Advertising

Bradford Weather History for the Previous 24 Hours

Scroll right to see more
 ConditionsComfort  
Time TempWeatherWind HumidityBarometerVisibility
5:20 pm
Sun, Jan 22
36 °FFog.7 mph93%30.24 "Hg2 mi
4:50 pm36 °FFog.3 mph93%30.24 "Hg2 mi
4:20 pm34 °FFog.2 mph100%30.24 "Hg2 mi
3:50 pm34 °FScattered clouds.5 mph100%30.24 "Hg2 mi
3:20 pm36 °FLight rain. Overcast.3 mph93%30.24 "Hg2 mi
2:50 pm36 °FOvercast.2 mph87%30.24 "Hg2 mi
2:20 pm36 °FOvercast.3 mph93%30.21 "Hg3 mi
1:50 pm36 °FFog.2 mph87%30.24 "Hg2 mi
1:20 pm36 °FLight snow. Overcast.1 mph87%30.21 "Hg2 mi
12:50 pm34 °FLight rain. Overcast.1 mph93%30.21 "Hg4 mi
12:20 pm34 °FClear.6 mph93%30.24 "Hg4 mi
11:50 am34 °FPassing clouds.9 mph87%30.24 "Hg4 mi
11:20 am34 °FPassing clouds.6 mph87%30.24 "Hg4 mi
10:50 am32 °FPassing clouds.3 mph93%30.24 "Hg4 mi
10:20 am32 °FPassing clouds.3 mph93%30.24 "Hg4 mi
9:50 am32 °FScattered clouds.5 mph93%30.24 "Hg4 mi
9:20 am32 °FScattered clouds.7 mph93%30.24 "Hg5 mi
8:50 am32 °FScattered clouds.6 mph87%30.21 "Hg4 mi
8:20 am30 °FPassing clouds.3 mph93%30.21 "Hg4 mi
7:50 am30 °FPassing clouds.5 mph86%30.21 "Hg4 mi
7:20 am28 °FPassing clouds.7 mph93%30.18 "HgN/A
6:50 am28 °FPassing clouds.6 mph93%30.21 "HgN/A
6:20 am30 °FPassing clouds.5 mph93%30.21 "HgN/A
5:50 am30 °FPassing clouds.3 mph93%30.21 "Hg5 mi
5:20 am30 °FPassing clouds.3 mph93%30.21 "HgN/A
4:50 am32 °FPassing clouds.6 mph87%30.21 "HgN/A
4:20 am32 °FPassing clouds.5 mph93%30.21 "HgN/A
3:50 am34 °FPassing clouds.5 mph87%30.18 "HgN/A
2:50 am34 °FPassing clouds.6 mph87%30.21 "HgN/A
2:20 am34 °FPassing clouds.5 mph93%30.21 "HgN/A
1:50 am34 °FPassing clouds.5 mph93%30.21 "HgN/A
1:20 am34 °FPassing clouds.5 mph93%30.21 "HgN/A
12:50 am36 °FPassing clouds.6 mph87%30.24 "HgN/A
11:50 pm
Sat, Jan 21
36 °FPassing clouds.6 mph87%30.24 "Hg4 mi
11:20 pm36 °FPassing clouds.10 mph93%30.24 "Hg4 mi
10:50 pm36 °FPassing clouds.8 mph100%30.24 "Hg4 mi
10:20 pm36 °FDrizzle. Fog.8 mph100%30.24 "Hg2 mi
9:50 pm36 °FDrizzle. Fog.8 mph100%30.24 "Hg2 mi
9:20 pm36 °FDrizzle. Fog.9 mph100%30.24 "Hg2 mi
8:50 pm37 °FDrizzle. Fog.8 mph100%30.24 "Hg2 mi
8:20 pm37 °FDrizzle. Fog.7 mph100%30.24 "Hg2 mi
7:50 pm37 °FDrizzle. Fog.7 mph100%30.27 "Hg2 mi
7:20 pm37 °FPartly cloudy.5 mph100%30.27 "Hg5 mi
6:50 pm37 °FPartly cloudy.8 mph93%30.27 "Hg6 mi
6:20 pm37 °FFog.6 mph100%30.27 "Hg2 mi
Weather by CustomWeather, © 2017

See weather overviewHow to use our weather pages